Location: Caltech
(34.1382°N, 118.1253°W)
Time: 17:22:26
(UTC-07:00)

Cosmos 1939 Rocket - Visible Passes

Search period start: 28 June 2017 00:00
Search period end: 08 July 2017 00:00
Orbit: 536 x 583 km, 97.5° (Epoch: 28 June)

Date Brightness Start Highest point End Pass type
(mag) Time Alt. Az. Time Alt. Az. Time Alt. Az.
28 Jun 4.2 21:34:24 10° SSW 21:38:05 37° W 21:41:52 10° NNW visible
29 Jun 4.1 21:33:07 10° SSW 21:36:51 38° W 21:40:40 10° NNW visible
30 Jun 4.1 21:31:51 10° SSW 21:35:37 39° W 21:39:28 10° NNW visible
01 Jul 4.0 21:30:35 10° S 21:34:23 41° W 21:38:16 10° NNW visible
02 Jul 4.0 21:29:19 10° S 21:33:09 42° W 21:37:03 10° NNW visible
03 Jul 3.9 21:28:03 10° S 21:31:55 44° W 21:35:51 10° NNW visible
04 Jul 3.8 21:26:48 10° S 21:30:41 46° W 21:34:39 10° NNW visible
05 Jul 3.8 21:25:32 10° S 21:29:26 47° W 21:33:26 10° NNW visible
06 Jul 3.7 21:24:17 10° S 21:28:12 49° W 21:32:12 10° NNW visible
07 Jul 3.6 21:23:01 10° S 21:26:59 51° W 21:31:00 10° NNW visible
